Location: Smithers
(54.7670°N, 127.1670°W)
Time: 09:40:12
(UTC-07:00)

Daily predictions for brighter satellites

Satellite Brightness Start Highest point End
(mag) Time Altitude Azimuth Time Altitude Azimuth Time Altitude Azimuth
Cosmos 1606 3.4 22:24:21 10° NNW 22:28:04 54° W 22:31:45 10° S
SPOT 1/Viking Rocket 3.6 22:23:25 10° SSE 22:28:37 77° ENE 22:33:51 10° NNW
Cosmos 372 Rocket 4.2 22:24:33 10° S 22:29:26 47° ESE 22:34:20 10° NE
NOSS 3-2 (C) 3.6 22:23:16 10° SW 22:29:29 83° SE 22:36:29 10° NE
Cosmos 2263 4.4 22:24:19 10° SSW 22:29:56 56° ESE 22:35:32 10° NE
SPOT 5 3.2 22:28:23 10° SSE 22:33:44 81° WSW 22:39:01 10° NNW
H-2A R/B 3.1 22:31:40 10° ESE 22:35:17 31° ENE 22:38:58 10° N
Okean 3 4.1 22:32:13 10° N 22:36:12 41° ENE 22:40:10 10° SE
YAOGAN 11 4.4 22:33:10 10° SSE 22:37:42 76° WSW 22:42:13 10° NNW
Molniya-1 3.3 22:36:55 10° S 22:38:13 21° SE 22:39:34 10° ENE
Lacrosse 5 rocket 1.7 22:35:04 10° SSW 22:38:18 32° SE 22:41:40 10° ENE
Cosmos 1125 Rocket 3.5 22:35:25 10° SSW 22:40:36 66° ESE 22:45:48 10° NNE
COSMOS 2455 2.8 22:34:39 10° SSW 22:40:40 79° SE 22:46:43 10° NE
GEOS 3 Rocket 3.7 22:36:18 10° SE 22:41:30 79° SW 22:46:49 10° NW
Cosmos 2369 Rocket 2.2 22:36:00 10° SSW 22:41:42 84° ESE 22:47:27 10° NE
CENTAUR R/B 2.8 22:37:26 10° SSW 22:43:27 51° SE 22:50:18 10° NE
Nadezhda 4 Rocket 4.2 22:37:58 10° SSE 22:43:58 55° E 22:49:57 10° NNE
IGS 5A 3.9 22:42:23 10° SE 22:46:24 51° ENE 22:50:28 10° N
Meteor 1-29 4.4 22:47:33 10° N 22:50:54 42° WNW 22:54:13 10° SW
Cosmos 2297 Rocket 3.3 22:48:36 10° NNW 22:53:54 38° NE 22:59:10 10° ESE
Cosmos 2344 4.0 22:49:13 10° SSW 22:56:29 47° ESE 23:04:55 10° NE
Cosmos 1908 Rocket 4.5 22:52:50 10° SSE 22:56:49 33° E 23:00:48 10° NNE
ATLAS 5 CENTAUR R/B 3.5 22:52:31 10° WNW 22:57:45 34° WSW 23:03:26 10° S
Cosmos 1867 3.9 22:52:51 10° NW 22:58:15 62° SW 23:03:23 11° SSE
Meteor 1-27 Rocket 4.3 22:55:32 10° NNW 23:01:14 57° W 23:06:46 10° S
Cosmos 494 Rocket 4.2 22:59:11 10° NNW 23:04:26 72° WSW 23:09:26 11° SSE
Cosmos 1408 3.8 23:05:09 10° SW 23:08:43 43° WNW 23:12:21 10° N
H-2A R/B 2.7 23:04:27 10° S 23:09:45 56° W 23:14:58 10° NNW
PSLV R/B 4.0 23:08:27 14° SE 23:10:26 33° ENE 23:12:58 10° N
ARGOS 4.5 23:12:48 10° SSW 23:17:43 36° W 23:22:39 10° NNW
Cosmos 1656 Rocket 3.9 23:12:39 10° S 23:17:54 50° ESE 23:23:17 10° NE
ATLAS 3B R/B 4.0 23:11:12 10° W 23:18:06 45° NNW 23:24:41 10° ENE
Cosmos 1346 3.1 23:16:04 10° NNW 23:18:46 61° WSW 23:20:53 15° S
Cosmos 2082 4.3 23:13:26 10° NNW 23:19:02 51° NE 23:24:27 11° ESE
Cosmos 1825 3.7 23:16:51 10° SW 23:20:23 36° WNW 23:23:56 10° N
CZ-2C R/B 4.2 23:16:45 10° ESE 23:21:06 30° ENE 23:25:19 10° N
Cosmos 1733 Rocket 3.2 23:17:16 10° SSW 23:21:36 78° WNW 23:25:59 10° N
Cosmos 1782 Rocket 4.3 23:20:55 15° SSE 23:24:08 36° E 23:28:10 10° NNE
APEX 3.8 23:20:10 10° NNW 23:25:18 67° NE 23:28:32 15° SE
BREEZE M DEB (TANK) 4.0 23:23:16 10° SW 23:29:39 31° S 23:32:28 10° ESE
Sich 1 Rocket 3.7 23:27:16 13° S 23:31:12 61° E 23:35:34 10° NNE
DNEPR-1 R/B 3.6 23:26:40 10° SW 23:31:29 86° SE 23:35:47 10° NE
Lacrosse 4 Rocket 3.8 23:31:27 10° WNW 23:34:17 17° WSW 23:37:04 10° SSW
ISS -3.4 23:31:54 10° SW 23:34:56 38° SSE 23:38:00 10° E
Nimbus 7 Rocket 4.5 23:29:11 10° NNE 23:35:08 83° WNW 23:41:00 10° SSW
Cosmos 1975 Rocket 3.1 23:34:27 10° N 23:38:56 83° ENE 23:42:22 17° SSE
Cosmos 1812 2.8 23:36:50 10° NNW 23:40:44 81° W 23:43:38 17° S
CZ-2C R/B 4.0 23:39:09 10° NE 23:43:07 22° E 23:46:00 14° SE
Cosmos 1633 3.8 23:41:48 18° SE 23:43:30 26° E 23:46:31 10° NNE
Cosmos 2227 Rocket 2.3 23:38:05 10° NNW 23:43:47 77° NE 23:48:20 16° SE
Cosmos 1437 4.4 23:43:26 10° NW 23:46:15 28° W 23:48:56 11° SSW
Cosmos 1655 Rocket 4.2 23:43:07 15° SSE 23:48:10 56° E 23:54:17 10° NNE
Cosmos 2219 3.9 23:44:12 10° NW 23:49:41 47° WSW 23:54:13 15° S
ATLAS CENTAUR R/B 2.1 23:48:33 19° S 23:50:29 29° SE 23:53:50 10° ENE
ALOS 2 3.7 23:47:34 14° ESE 23:50:48 34° ENE 23:54:47 10° N
Cosmos 1378 Rocket 4.4 23:48:06 10° NNW 23:52:22 46° W 23:56:10 13° SSW
Meteor 1-14 Rocket 4.3 23:47:25 12° S 23:52:54 76° E 23:58:41 10° NNE
DMSP B5D2-2 4.3 23:48:51 10° NNE 23:54:04 71° WNW 23:59:15 10° SSW
Terra 2.8 23:50:55 11° SSW 23:55:10 42° W 23:59:42 10° NNW
